Weather History for Hanford, CA

Change the Weather History Date:

Friday, May 31, 2013

  Actual Average Record
Temperature  
Mean Temperature 76 °F 72 °F  
Max Temperature 93 °F 88 °F 105 °F (2001)
Min Temperature 58 °F 56 °F 48 °F (2011)
Degree Days  
Heating Degree Days 0    
Month to date heating degree days 6  
Since 1 July heating degree days 2324  
Cooling Degree Days 11    
Month to date cooling degree days 188  
Year to date cooling degree days 252  
Growing Degree Days 26 (Base 50)    
Moisture  
Dew Point 42 °F    
Average Humidity 31    
Maximum Humidity 46    
Minimum Humidity 16    
Precipitation  
Precipitation 0.00 in 0.01 in 0.93 in (2002)
Month to date precipitation 0.18 0.42  
Year to date precipitation 1.60 6.61  
Since 1 July precipitation 3.60 9.95  
Snow  
Snow 0.00 in - - ()
Month to date snowfall 0.0  
Since 1 July snowfall 0.0  
Snow Depth 0.00 in    
Sea Level Pressure  
Sea Level Pressure 29.92 in    
Wind  
Wind Speed 9 mph (NW)    
Max Wind Speed 16 mph    
Max Gust Speed 21 mph    
Visibility 10 miles    
Events      
T = Trace of Precipitation, MM = Missing Value Source: NWS Daily Summary

Daily Weather History Graph

Daily Weather History Graph

Search for Another Location

Airport:

Trip Planner

Search our weather history database for the weather conditions in past years. The results will help you decide how hot, cold, wet, or windy it might be!

Date:

Astronomy

May. 31, 2013 Rise Set
Actual Time 5:42 AM PDT 8:10 PM PDT
Civil Twilight 5:12 AM PDT 8:40 PM PDT
Nautical Twilight 4:35 AM PDT 9:17 PM PDT
Astronomical Twilight 3:55 AM PDT 9:57 PM PDT
Moon 12:56 AM PDT (5/31) 12:53 PM PDT (5/31)
Length of Visible Light 15h 27m
Length of Day
14h 27m
Waning Gibbous, 50% of the Moon is Illuminated
May 31
Waning Gibbous
May 31
Last Quarter
Jun 8
New
Jun 16
First Quarter
Jun 23
Full

Hourly Weather History & Observations

Time (PDT) Temp. Dew Point Humidity Pressure Visibility Wind Dir Wind Speed Gust Speed Precip Events Conditions
12:53 AM 68.0 °F 37.9 °F 33% 29.92 in 10.0 mi NW 13.8 mph - N/A   Clear
1:53 AM 64.9 °F 37.9 °F 37% 29.92 in 10.0 mi NNW 10.4 mph - N/A   Clear
2:53 AM 64.0 °F 35.1 °F 34% 29.91 in 10.0 mi NNW 11.5 mph - N/A   Clear
3:53 AM 64.0 °F 33.1 °F 31% 29.91 in 10.0 mi NNW 5.8 mph - N/A   Clear
4:53 AM 60.1 °F 37.9 °F 44% 29.92 in 10.0 mi NNW 4.6 mph - N/A   Clear
5:53 AM 60.1 °F 39.0 °F 46% 29.94 in 10.0 mi NNW 4.6 mph - N/A   Clear
6:53 AM 61.0 °F 39.9 °F 46% 29.95 in 10.0 mi Calm Calm - N/A   Clear
7:53 AM 66.0 °F 43.0 °F 43% 29.97 in 10.0 mi NW 11.5 mph - N/A   Clear
8:53 AM 70.0 °F 45.0 °F 41% 29.98 in 10.0 mi NNW 12.7 mph - N/A   Clear
9:53 AM 73.0 °F 46.0 °F 38% 29.98 in 10.0 mi NW 11.5 mph - N/A   Clear
10:53 AM 77.0 °F 46.9 °F 34% 29.98 in 10.0 mi NW 6.9 mph - N/A   Clear
11:53 AM 80.1 °F 48.0 °F 32% 29.97 in 10.0 mi Variable 5.8 mph - N/A   Clear
12:53 PM 82.9 °F 48.0 °F 29% 29.95 in 10.0 mi NNW 8.1 mph - N/A   Clear
1:53 PM 86.0 °F 48.0 °F 27% 29.94 in 10.0 mi NNW 6.9 mph - N/A   Clear
2:53 PM 89.1 °F 46.9 °F 23% 29.91 in 10.0 mi West 10.4 mph - N/A   Clear
3:53 PM 90.0 °F 42.1 °F 19% 29.89 in 10.0 mi NNW 12.7 mph 18.4 mph N/A   Clear
4:53 PM 91.0 °F 39.9 °F 17% 29.88 in 10.0 mi NW 11.5 mph - N/A   Clear
5:42 PM 91.4 °F 37.4 °F 15% 29.87 in 10.0 mi North 9.2 mph 17.3 mph N/A   Partly Cloudy
5:53 PM 90.0 °F 37.9 °F 16% 29.87 in 10.0 mi North 10.4 mph - N/A   Clear
6:53 PM 89.1 °F 37.0 °F 16% 29.87 in 10.0 mi NNW 12.7 mph - N/A   Clear
7:53 PM 84.9 °F 39.0 °F 20% 29.88 in 10.0 mi NW 8.1 mph - N/A   Clear
8:53 PM 81.0 °F 41.0 °F 24% 29.88 in 10.0 mi NW 5.8 mph 20.7 mph N/A   Clear
9:53 PM 77.0 °F 44.1 °F 31% 29.89 in 10.0 mi NW 4.6 mph - N/A   Clear
10:53 PM 73.9 °F 45.0 °F 35% 29.90 in 10.0 mi NW 3.5 mph - N/A   Clear
11:53 PM 73.0 °F 45.0 °F 37% 29.90 in 10.0 mi Calm Calm - N/A   Clear